EW9515 Weather Reports


Display with metric or nautical units.
time (UTC)temp
F
wind
direction
speed
MPH
gust
MPH
rain 1hr
in
rain 24hr
in
rain mn
in
humidity
%
barometer
mb
20260504024932 77 68 2.0 4.0 0.00 0.02 0.02 75 1014.9
20260504023935 77 113 5.0 10.0 0.00 0.02 0.02 77 1015.0
20260504022948 77 68 8.0 12.0 0.00 0.02 0.02 76 1015.1
20260504021953 78 68 4.0 7.0 0.00 0.02 0.02 75 1015.3
20260504020948 78 68 4.0 7.0 0.00 0.02 0.02 72 1015.4
20260504015947 77 113 1.0 2.0 0.00 0.02 0.02 73 1015.5
20260504014927 78 68 2.0 4.0 0.00 0.02 0.02 73 1015.7
20260504013955 78 113 2.0 2.0 0.00 0.02 0.02 71 1015.9
20260504013817 78 131 2.0 0.0 0.00 0.02 0.02 71 1015.9
20260504012829 78 90 3.0 6.0 0.00 0.02 0.02 72 1016.0
20260504011819 78 68 4.0 7.0 0.00 0.02 0.02 73 1016.2
20260504010859 78 113 4.0 7.0 0.00 0.02 0.02 73 1016.3
20260504005818 78 135 3.0 5.0 0.00 0.02 0.02 71 1016.4
20260504004818 77 68 5.0 6.0 0.01 0.02 0.02 73 1016.4
20260504003839 76 45 4.0 6.0 0.01 0.02 0.02 75 1016.5
20260504002819 76 90 3.0 6.0 0.01 0.02 0.02 76 1016.6
20260504001818 77 90 3.0 7.0 0.01 0.02 0.02 75 1016.7
20260504000844 76 90 2.0 4.0 0.01 0.02 0.02 76 1016.8
20260503235839 78 68 6.0 9.0 0.01 0.02 0.02 74 1017.0
20260503234819 77 113 1.0 2.0 0.00 0.01 0.01 77 1016.9
20260503233838 76 90 3.0 6.0 0.00 0.01 0.01 81 1016.9
20260503232818 74 158 2.0 3.0 0.00 0.01 0.01 87 1016.8
20260503231839 73 158 4.0 5.0 0.00 0.01 0.01 87 1016.8
20260503230820 72 225 4.0 6.0 0.00 0.01 0.01 88 1016.7
20260503225828 72 158 1.0 3.0 0.00 0.02 0.01 90 1016.9
20260503224844 72 158 1.0 3.0 0.00 0.02 0.01 91 1016.8
20260503223818 71 158 1.0 2.0 0.00 0.02 0.01 91 1016.7
20260503222824 70 158 1.0 1.0 0.00 0.02 0.01 92 1016.8
20260503221818 70 158 1.0 2.0 0.00 0.02 0.01 92 1016.8
20260503220829 70 180 3.0 4.0 0.00 0.02 0.01 93 1016.8
20260503215818 70 180 2.0 3.0 0.00 0.02 0.01 93 1016.8
20260503214818 70 180 1.0 2.0 0.00 0.02 0.01 93 1016.7
20260503213818 70 180 1.0 2.0 0.00 0.02 0.01 94 1016.7
20260503212818 69 180 2.0 3.0 0.00 0.02 0.01 94 1016.7
20260503211818 69 180 1.0 3.0 0.00 0.02 0.01 94 1016.7
20260503210818 69 180 1.0 2.0 0.00 0.02 0.01 94 1016.6
20260503205818 68 0.0 0.0 0.00 0.02 0.01 94 1016.5
20260503204818 68 0.0 0.0 0.00 0.02 0.01 94 1016.4
20260503203818 68 0.0 1.0 0.00 0.02 0.01 94 1016.3
20260503202823 68 0.0 1.0 0.00 0.02 0.01 94 1016.2
20260503201817 68 180 1.0 1.0 0.00 0.02 0.01 94 1016.2
20260503200820 68 180 1.0 2.0 0.00 0.02 0.01 94 1016.1
20260503195818 68 180 1.0 1.0 0.00 0.02 0.01 94 1015.9
20260503194838 68 180 1.0 2.0 0.00 0.02 0.01 94 1015.9
20260503193817 68 0.0 0.0 0.00 0.02 0.01 94 1015.7
20260503192819 68 0.0 1.0 0.00 0.02 0.01 94 1015.6
20260503191817 67 0.0 0.0 0.00 0.02 0.01 93 1015.6
20260503190818 68 0.0 0.0 0.00 0.02 0.01 93 1015.5
20260503185817 68 180 1.0 1.0 0.00 0.02 0.01 93 1015.5
20260503184818 68 180 1.0 2.0 0.00 0.02 0.01 93 1015.6
20260503183817 68 180 1.0 2.0 0.00 0.02 0.01 93 1015.6
20260503182823 68 0.0 0.0 0.01 0.02 0.01 93 1015.5
20260503181817 68 0.0 0.0 0.01 0.02 0.01 93 1015.5
20260503180818 68 0.0 0.0 0.01 0.02 0.01 93 1015.5
20260503175817 68 180 1.0 2.0 0.01 0.02 0.01 93 1015.5
20260503174828 68 180 1.0 2.0 0.01 0.02 0.01 93 1015.6
20260503173822 68 180 1.0 2.0 0.01 0.02 0.01 93 1015.6
20260503172822 68 180 1.0 1.0 0.00 0.01 0.00 93 1015.6
20260503171817 68 180 1.0 2.0 0.00 0.01 0.00 92 1015.7
20260503170817 67 180 1.0 2.0 0.00 0.01 0.00 92 1015.7
20260503150823 69 203 1.0 1.0 0.00 0.01 0.00 89 1016.7
20260503130828 69 158 3.0 4.0 0.00 0.01 0.01 88 1017.5
20260503110823 69 158 2.0 2.0 0.00 0.01 0.01 87 1017.8
20260503080823 71 135 2.0 4.0 0.00 0.01 0.01 83 1017.0
20260503072818 73 135 1.0 2.0 0.00 0.01 0.01 81 1016.9
20260503071838 73 135 2.0 3.0 0.00 0.01 0.01 80 1016.7
20260503070817 73 0.0 1.0 0.00 0.02 0.01 80 1016.7
20260503054827 76 113 2.0 3.0 0.00 0.02 0.01 76 1016.8
20260503053818 76 113 2.0 3.0 0.00 0.03 0.01 75 1016.8
20260503052817 76 113 3.0 4.0 0.00 0.09 0.01 75 1016.7
20260503051817 77 113 5.0 7.0 0.00 0.10 0.01 74 1016.8
20260503050837 77 113 5.0 9.0 0.00 0.10 0.01 74 1016.8
20260503045817 77 113 4.0 8.0 0.00 0.10 0.01 72 1016.7
20260503044818 78 113 3.0 7.0 0.00 0.10 0.01 71 1016.7
20260503043817 77 113 3.0 6.0 0.00 0.11 0.01 72 1016.7
20260503042818 77 113 4.0 6.0 0.00 0.11 0.01 72 1016.6
20260503041837 78 113 3.0 7.0 0.00 0.11 0.01 71 1016.7
20260503040817 78 68 4.0 8.0 0.00 0.12 0.01 72 1016.7
20260503035837 78 135 3.0 6.0 0.00 0.12 0.01 72 1016.7
20260503034817 77 180 3.0 5.0 0.00 0.13 0.01 72 1017.0
20260503033837 78 90 2.0 4.0 0.00 0.13 0.01 71 1017.0
20260503032837 78 135 2.0 3.0 0.00 0.13 0.01 72 1016.9
20260503031816 78 113 3.0 5.0 0.00 0.14 0.01 71 1017.0
20260503030817 78 113 4.0 5.0 0.00 0.17 0.01 73 1017.1
20260503025816 77 68 4.0 7.0 0.00 0.17 0.01 73 1017.3